User: anonymous
Location: Caltech
(34.1382°N, 118.1253°W)
Time: 02:10:49
(UTC-07:00)
Language:

Uribyol 2 - Orbit

View from above orbital plane
View from above orbital plane
View from above satellite
View from above satellite

Ground track
Ground track

The orbit data is extracted from the following two-line orbital elements,

1 22828U 93061F   14244.86666373  .00000102  00000-0  56200-4 0  6909
2 22828 098.6541 190.0496 0010526 042.6186 317.5811 14.30335101 60202
Epoch (UTC): 01 September 2014 20:47:59
Eccentricity: 0.0010526
inclination: 98.6541°
perigee height: 783 km
apogee height: 798 km
right ascension of ascending node: 190.0496°
argument of perigee: 42.6186°
revolutions per day: 14.30335101
mean anomaly at epoch: 317.5811°
orbit number at epoch: 6020

The dashed part of the orbit path shows where the satellite is in the earth's shadow,  

DLR